Weather History for St. Augustine, FL

Change the Weather History Date:

Friday, April 26, 2013

  Actual Average Record
Temperature  
Mean Temperature 72 °F -  
Max Temperature 77 °F 75 °F 91 °F (1986)
Min Temperature 66 °F 60 °F 51 °F (1998)
Cooling Degree Days 6    
Growing Degree Days 22 (Base 50)    
Moisture  
Dew Point 65 °F    
Average Humidity 78    
Maximum Humidity 87    
Minimum Humidity 69    
Precipitation  
Precipitation 0.10 in - - ()
Sea Level Pressure  
Sea Level Pressure 30.26 in    
Wind  
Wind Speed 10 mph (North)    
Max Wind Speed 17 mph    
Max Gust Speed 18 mph    
Visibility 9 miles    
Events      
Averages and records for this station are not official NWS values.
T = Trace of Precipitation, MM = Missing Value Source: NWS Daily Summary

Daily Weather History Graph

Daily Weather History Graph

Search for Another Location

Airport:

Trip Planner

Search our weather history database for the weather conditions in past years. The results will help you decide how hot, cold, wet, or windy it might be!

Date:

Astronomy

Apr. 26, 2013 Rise Set
Actual Time 6:46 AM EDT 7:59 PM EDT
Civil Twilight 6:21 AM EDT 8:24 PM EDT
Nautical Twilight 5:52 AM EDT 8:54 PM EDT
Astronomical Twilight 5:21 AM EDT 9:25 PM EDT
Moon 9:14 PM EDT (4/26) 7:17 AM EDT (4/26)
Length of Visible Light 14h 02m
Length of Day
13h 12m
Full, 99% of the Moon is Illuminated
Apr 26
Full
May 2
Last Quarter
May 9
New
May 18
First Quarter
May 25
Full

Hourly Weather History & Observations

Time (EDT) Temp. Dew Point Humidity Pressure Visibility Wind Dir Wind Speed Gust Speed Precip Events Conditions
12:58 AM 70.0 °F 62.1 °F 76% 30.22 in 10.0 mi SW 5.8 mph - N/A   Clear
1:58 AM 69.1 °F 62.1 °F 78% 30.20 in 10.0 mi WSW 5.8 mph - N/A   Partly Cloudy
2:58 AM 69.1 °F 62.1 °F 78% 30.19 in 10.0 mi West 5.8 mph - N/A   Overcast
3:58 AM 68.0 °F 62.1 °F 81% 30.19 in 10.0 mi NW 4.6 mph - N/A   Clear
4:58 AM 66.0 °F 62.1 °F 87% 30.19 in 10.0 mi WSW 3.5 mph - N/A   Scattered Clouds
5:58 AM 66.0 °F 61.0 °F 84% 30.20 in 10.0 mi NNW 3.5 mph - N/A   Overcast
6:58 AM 66.0 °F 60.1 °F 81% 30.22 in 10.0 mi North 6.9 mph - N/A   Overcast
7:58 AM 68.0 °F 62.1 °F 81% 30.25 in 5.0 mi NNW 6.9 mph - N/A   Haze
8:58 AM 69.1 °F 64.9 °F 87% 30.27 in 5.0 mi North 12.7 mph - N/A   Overcast
9:58 AM 70.0 °F 66.0 °F 87% 30.28 in 5.0 mi North 12.7 mph - N/A   Overcast
10:58 AM 73.0 °F 68.0 °F 84% 30.30 in 5.0 mi North 13.8 mph 18.4 mph N/A   Haze
11:17 AM 73.4 °F 66.2 °F 78% 30.30 in 8.0 mi North 17.3 mph - 0.10 in   Mostly Cloudy
11:22 AM 75.2 °F 66.2 °F 73% 30.30 in 7.0 mi North 17.3 mph - 0.10 in   Mostly Cloudy
11:51 AM 75.2 °F 66.2 °F 73% 30.30 in 5.0 mi North 16.1 mph - 0.10 in   Haze
11:58 AM 73.9 °F 66.9 °F 79% 30.30 in 5.0 mi North 15.0 mph - 0.10 in   Haze
12:58 PM 75.0 °F 66.9 °F 76% 30.30 in 10.0 mi NNE 16.1 mph - N/A   Clear
1:58 PM 75.9 °F 66.0 °F 71% 30.28 in 10.0 mi NNE 17.3 mph - N/A   Clear
2:58 PM 75.9 °F 66.0 °F 71% 30.28 in 10.0 mi North 15.0 mph - N/A   Scattered Clouds
3:15 PM 75.2 °F 66.2 °F 73% 30.27 in 10.0 mi NNE 15.0 mph - N/A   Mostly Cloudy
3:19 PM 77.0 °F 66.2 °F 69% 30.27 in 10.0 mi NNE 16.1 mph - N/A   Scattered Clouds
3:23 PM 77.0 °F 66.2 °F 69% 30.27 in 10.0 mi North 13.8 mph - N/A   Mostly Cloudy
3:46 PM 75.2 °F 66.2 °F 73% 30.26 in 10.0 mi North 13.8 mph - N/A   Overcast
3:58 PM 77.0 °F 66.0 °F 69% 30.26 in 10.0 mi NNE 16.1 mph - N/A   Mostly Cloudy
4:58 PM 75.0 °F 66.0 °F 73% 30.26 in 10.0 mi NNE 13.8 mph - N/A   Partly Cloudy
5:58 PM 73.9 °F 64.9 °F 73% 30.26 in 10.0 mi NNE 12.7 mph - N/A   Clear
6:58 PM 72.0 °F 64.9 °F 78% 30.26 in 10.0 mi NNE 13.8 mph - N/A   Clear
7:58 PM 70.0 °F 64.0 °F 81% 30.26 in 10.0 mi North 9.2 mph - N/A   Clear
8:58 PM 69.1 °F 64.0 °F 84% 30.28 in 10.0 mi NNW 6.9 mph - N/A   Clear
9:58 PM 69.1 °F 64.9 °F 87% 30.30 in 10.0 mi North 6.9 mph - N/A   Clear
10:58 PM 69.1 °F 64.9 °F 87% 30.30 in 10.0 mi North 8.1 mph - N/A   Clear
11:58 PM 70.0 °F 64.9 °F 84% 30.28 in 10.0 mi NE 10.4 mph - N/A   Clear